DateTimeUTC,F1_A11,F1_S11,BsB_S11,BsG_S11,BsR_S11,BbsB_S11,BbsG_S11,BbsR_S11,BaB_A11,BaG_A11,BaR_A11,Tu_S11,T_S11,Uu_S11,U_S11,P_S11,T1_A11
2021-05-05T12:00:00Z,00000200,21000000,,,,,,,0000.25,0000.31,0000.09,15.4,22.3,,00.0,0675.3,30.8
2021-05-05T12:01:00Z,00000200,21000000,,,,,,,-000.30,-000.33,-000.26,15.4,22.3,,00.0,0675.3,30.8
2021-05-05T12:02:00Z,00000200,21000000,,,,,,,0000.23,0000.22,0000.20,15.3,22.3,,00.0,0675.3,30.8
2021-05-05T12:03:00Z,00000200,61000000,,,,,,,0000.96,0000.74,0000.60,15.3,22.3,,00.0,0675.3,30.8
2021-05-05T12:04:00Z,00000200,41000000,0006.20,0003.71,0002.25,0000.92,0000.58,0000.52,0001.15,0001.39,0001.42,15.3,22.1,,00.0,0676.3,30.8
2021-05-05T12:05:00Z,00000200,01000000,0005.09,0003.49,0002.38,0001.22,0000.46,0000.53,0001.67,0001.56,0000.59,15.3,22.0,,00.0,0676.3,30.8
2021-05-05T12:06:00Z,00000200,01000000,0005.42,0003.59,0002.41,0000.63,0000.47,0000.62,0001.44,0001.14,0001.04,15.3,22.0,,00.0,0676.4,30.8
2021-05-05T12:07:00Z,00000200,01000000,0006.17,0003.57,0002.17,0000.64,0000.45,0000.51,0001.08,0000.68,0000.59,15.3,22.0,,00.0,0676.4,30.8
2021-05-05T12:08:00Z,00000200,01000000,0006.13,0003.46,0002.07,0001.59,0000.24,0000.48,0001.14,0001.10,0000.61,15.3,22.0,,00.0,0676.4,30.8
2021-05-05T12:09:00Z,00000200,01000000,0005.75,0003.45,0002.38,0000.70,0000.69,0000.79,0001.98,0001.81,0001.23,15.4,22.0,,00.0,0676.4,30.8
2021-05-05T12:10:00Z,00000200,01000000,0005.30,0003.42,0002.06,0001.41,0000.60,0000.48,0001.23,0001.32,0000.96,15.5,22.1,,00.0,0676.4,30.8
2021-05-05T12:11:00Z,00000200,01000000,0006.11,0003.98,0002.26,0000.85,0000.51,0000.49,0001.01,0000.94,0000.54,15.6,22.1,,00.0,0676.3,30.8
2021-05-05T12:12:00Z,00000200,01000000,0005.27,0003.69,0002.38,0000.93,0000.49,0000.60,0001.97,0001.44,0001.23,15.6,22.1,,00.0,0676.4,30.8
2021-05-05T12:13:00Z,00000200,01000000,0006.37,0003.63,0002.19,0001.21,0000.48,0000.67,0001.63,0001.52,0001.29,15.6,22.1,,00.0,0676.4,30.8
2021-05-05T12:14:00Z,00000200,01000000,0006.11,0003.54,0002.38,0001.07,0000.61,0000.64,0001.60,0001.32,0000.77,15.6,22.1,,00.0,0676.4,30.8
2021-05-05T12:15:00Z,00000200,01000000,0006.45,0003.62,0002.25,0001.38,0000.50,0000.48,0001.34,0001.29,0000.91,15.6,22.1,,00.0,0676.4,30.8
2021-05-05T12:16:00Z,00000200,01000000,0005.27,0003.59,0002.19,0001.46,0000.81,0000.59,0001.40,0001.17,0001.07,15.5,22.1,,00.0,0676.4,30.8
2021-05-05T12:17:00Z,00000200,01000000,0006.84,0004.10,0002.37,0001.03,0000.68,0000.63,0001.59,0001.53,0000.77,15.5,22.1,,00.0,0676.4,30.9
2021-05-05T12:18:00Z,00000200,01000000,0006.67,0004.13,0002.06,0000.98,0000.84,0000.60,0001.53,0001.68,0001.44,15.5,22.1,,00.0,0676.4,30.9
2021-05-05T12:19:00Z,00000200,01000000,0004.95,0003.74,0002.53,0000.88,0000.65,0000.34,0001.47,0001.10,0000.93,15.5,22.1,,00.0,0676.4,30.8
2021-05-05T12:20:00Z,00000200,01000000,0006.97,0003.92,0002.27,0001.13,0000.76,0000.58,0001.73,0001.61,0001.26,15.5,22.1,,00.0,0676.4,30.8
2021-05-05T12:21:00Z,00000200,01000000,0006.35,0004.07,0002.44,0000.99,0000.82,0000.70,0001.62,0001.66,0001.08,15.5,22.1,,00.0,0676.4,30.8
2021-05-05T12:22:00Z,00000200,01000000,0006.33,0004.53,0002.57,0001.23,0000.57,0000.67,0001.51,0001.07,0000.69,15.5,22.1,,00.0,0676.4,30.8
2021-05-05T12:23:00Z,00000200,01000000,0006.32,0004.14,0002.73,0000.84,0000.60,0000.67,0001.82,0001.95,0001.47,15.5,22.1,,00.0,0676.4,30.8
2021-05-05T12:24:00Z,00000200,01000000,0005.82,0004.15,0002.50,0000.91,0000.68,0000.71,0001.68,0001.33,0001.00,15.6,22.1,,00.0,0676.4,30.8
2021-05-05T12:25:00Z,00000200,01000000,0006.46,0004.24,0002.66,0001.26,0000.61,0000.73,0001.80,0001.85,0001.31,15.7,22.2,,00.0,0676.5,30.8
2021-05-05T12:26:00Z,00000200,01000000,0006.53,0003.94,0002.31,0001.48,0000.83,0000.59,0001.50,0001.18,0000.63,15.8,22.2,,00.0,0676.4,30.9
2021-05-05T12:27:00Z,00000200,01000000,0006.46,0004.17,0002.64,0001.60,0000.57,0000.53,0001.74,0001.41,0001.18,15.9,22.3,,00.0,0676.5,30.9
2021-05-05T12:28:00Z,00000200,01000000,0007.00,0004.20,0002.65,0001.29,0000.68,0000.53,0001.70,0001.61,0001.32,15.9,22.3,,00.0,0676.5,30.9
2021-05-05T12:29:00Z,00000200,01000000,0007.00,0004.23,0002.59,0001.54,0000.58,0000.75,0001.63,0001.78,0000.91,15.9,22.3,,00.0,0676.4,30.9
2021-05-05T12:30:00Z,00000200,01000000,0007.33,0004.05,0002.73,0001.40,0000.76,0000.83,0001.67,0001.17,0001.30,15.9,22.3,,00.0,0676.5,30.9
2021-05-05T12:31:00Z,00000200,01000000,0006.96,0004.49,0002.66,0001.28,0000.83,0000.68,0001.42,0001.08,0000.92,16.0,22.3,,00.0,0676.5,30.9
2021-05-05T12:32:00Z,00000200,01000000,0006.87,0004.14,0002.49,0000.92,0000.58,0000.47,0001.99,0002.23,0001.25,16.0,22.3,,00.0,0676.5,30.9
2021-05-05T12:33:00Z,00000200,01000000,0006.37,0003.90,0002.55,0001.45,0000.86,0000.35,0001.64,0001.28,0000.92,16.0,22.3,,00.0,0676.5,30.9
2021-05-05T12:34:00Z,00000200,01000000,0006.54,0003.94,0002.39,0001.44,0000.69,0000.68,0001.78,0001.77,0001.29,16.0,22.3,,00.0,0676.5,30.9
2021-05-05T12:35:00Z,00000200,01000000,0006.67,0004.06,0002.62,0001.58,0000.80,0000.73,0001.42,0001.41,0000.97,16.0,22.3,,00.0,0676.5,30.9
2021-05-05T12:36:00Z,00000200,01000000,0006.69,0004.12,0002.59,0001.62,0000.81,0000.57,0001.83,0001.24,0001.07,16.0,22.3,,00.0,0676.5,30.9
2021-05-05T12:37:00Z,00000200,01000000,0007.29,0004.40,0002.58,0001.23,0000.70,0000.67,0001.35,0001.24,0001.01,16.0,22.3,,00.0,0676.5,30.9
2021-05-05T12:38:00Z,00000200,01000000,0006.17,0004.30,0002.57,0001.05,0000.65,0000.88,0001.87,0001.75,0001.34,16.0,22.4,,00.0,0676.5,30.9
2021-05-05T12:39:00Z,00000200,01000000,0006.42,0003.95,0002.67,0001.48,0000.69,0000.77,0001.97,0001.75,0001.21,16.1,22.4,,00.0,0676.5,30.9
2021-05-05T12:40:00Z,00000200,01000000,0006.63,0004.65,0002.66,0001.01,0000.85,0000.91,0001.16,0001.34,0000.98,16.1,22.4,,00.0,0676.5,30.9
2021-05-05T12:41:00Z,00000200,01000000,0006.73,0004.09,0002.43,0001.64,0000.77,0000.38,0001.81,0001.18,0000.72,16.2,22.5,,00.0,0676.5,30.9
2021-05-05T12:42:00Z,00000200,01000000,0006.74,0004.00,0002.56,0001.35,0000.61,0000.61,0001.69,0001.81,0001.58,16.2,22.5,,00.0,0676.5,30.9
2021-05-05T12:43:00Z,00000200,01000000,0007.19,0004.06,0002.32,0000.87,0000.55,0000.55,0001.70,0001.42,0000.81,16.2,22.5,,00.0,0676.5,30.9
2021-05-05T12:44:00Z,00000200,01000000,0007.34,0004.29,0002.65,0001.59,0000.63,0000.45,0001.53,0001.02,0001.23,16.2,22.5,,00.0,0676.5,30.9
2021-05-05T12:45:00Z,00000200,01000000,0007.42,0004.16,0002.20,0000.75,0000.93,0000.69,0001.52,0001.77,0000.86,16.2,22.5,,00.0,0676.5,30.9
2021-05-05T12:46:00Z,00000200,01000000,0007.43,0004.33,0002.56,0001.19,0000.63,0000.73,0002.06,0001.59,0001.72,16.2,22.5,,00.0,0676.5,30.9
2021-05-05T12:47:00Z,00000200,01000000,0006.65,0004.47,0002.61,0001.37,0000.96,0000.55,0001.61,0001.60,0000.80,16.2,22.5,,00.0,0676.5,30.9
2021-05-05T12:48:00Z,00000200,01000000,0007.23,0004.40,0002.82,0001.05,0000.69,0000.61,0001.55,0001.39,0000.78,16.2,22.5,,00.0,0676.5,30.9
2021-05-05T12:49:00Z,00000200,01000000,0007.71,0004.62,0002.92,0001.25,0000.80,0000.64,0001.88,0001.72,0001.30,16.2,22.5,,00.0,0676.5,30.9
2021-05-05T12:50:00Z,00000200,01000000,0007.12,0004.42,0002.71,0001.24,0000.69,0000.75,0001.57,0001.41,0001.11,16.2,22.5,,00.0,0676.5,30.9
2021-05-05T12:51:00Z,00000200,01000000,0007.69,0004.37,0002.53,0001.52,0000.75,0000.46,0001.81,0001.24,0001.08,16.2,22.5,,00.0,0676.5,30.9
2021-05-05T12:52:00Z,00000200,01000000,0007.84,0005.14,0003.04,0001.14,0000.98,0001.12,0001.94,0002.09,0001.58,16.2,22.5,,00.0,0676.5,30.9
2021-05-05T12:53:00Z,00000200,01000000,0007.59,0004.97,0002.71,0001.77,0000.68,0000.79,0001.80,0001.46,0001.02,16.2,22.5,,00.0,0676.5,30.9
2021-05-05T12:54:00Z,00000200,01000000,0007.06,0004.54,0002.59,0001.61,0000.84,0000.60,0001.30,0001.25,0001.04,16.2,22.5,,00.0,0676.5,30.9
2021-05-05T12:55:00Z,00000200,01000000,0007.13,0004.37,0002.76,0001.35,0000.72,0000.44,0001.54,0001.40,0000.75,16.2,22.5,,00.0,0676.5,30.9
2021-05-05T12:56:00Z,00000200,01000000,0006.59,0004.17,0002.71,0001.96,0000.99,0000.48,0001.92,0001.78,0001.14,16.2,22.5,,00.0,0676.5,30.9
2021-05-05T12:57:00Z,00000200,41000000,,,,,,,0000.05,-000.43,0000.52,16.2,22.6,,00.0,0676.6,30.9
2021-05-05T12:58:00Z,00000200,61000000,,,,,,,-000.30,0000.61,-000.14,16.0,22.6,,00.0,0675.5,30.9
2021-05-05T12:59:00Z,00000200,21000000,,,,,,,-000.10,-000.26,-000.37,16.0,22.7,,00.0,0675.5,30.9
